User: anonymous   Login
Location: Unspecified
(0.0000°N, 0.0000°E)
Time: 01:45:19
(UTC+00:00)
Language:

CUTE-I - Orbit

View from above orbital plane
View from above orbital plane
View from above satellite
View from above satellite

Ground track
Ground track

The orbit data is extracted from the following two-line orbital elements,

1 27844U 03031E   20328.49507064 +.00000084 +00000-0 +57405-4 0  9999
2 27844 098.6825 333.8334 0009146 319.9610 040.0892 14.22269806902702
Epoch (UTC): 23 November 2020 11:52:54
Eccentricity: 0.0009146
inclination: 98.6825°
perigee height: 811 km
apogee height: 824 km
right ascension of ascending node: 333.8334°
argument of perigee: 319.9610°
revolutions per day: 14.22269806
mean anomaly at epoch: 40.0892°
orbit number at epoch: 90270

The dashed part of the orbit path shows where the satellite is in the earth's shadow,  

DLR